World > North America > United States > Ohio > Leavittsburg  

Leavittsburg, OH Hourly Weather Updates

Feedback E-mail the Weather

Quick Clicks

Leavittsburg, OH Weather Maps

°F °C°F °C
Leavittsburg Weather Map
UTC Time: 4/17/2024, 10:24
Your Time:

Leavittsburg, OH Regional Weather

Expires:202404171100;;891962
ASUS41 KCLE 171012
RWRCLE
OHIO REGIONAL WEATHER ROUNDUP
NATIONAL WEATHER SERVICE WILMINGTON, OH
600 AM EDT WED APR 17 2024

NOTE: "FAIR" INDICATES FEW OR NO CLOUDS BELOW 12,000 FEET WITH NO
SIGNIFICANT WEATHER AND/OR OBSTRUCTIONS TO VISIBILITY.


OHZ009>014-019>023-028>033-038-089-171100-
   NORTHEAST OHIO
  
CITY           SKY/WX    TMP DP  RH WIND       PRES   REMARKS
CLE-HOPKINS    CLOUDY    68  49  50 S7        29.87R                  
CLE-LAKEFRONT  FAIR      68  44  42 SE13      29.87R                  
CUY CO. ARPT   LGT RAIN  65  44  45 S7        29.91R                  
LORAIN-ELYRIA  LGT RAIN  64  50  60 S8        29.89R                  
ASHTABULA      MOCLDY    58  42  55 SE9       29.91F                  
AKRON-CANTON   LGT RAIN  65  52  62 S7        29.90F                  
WOOSTER        MOCLDY    66  54  65 S7        29.91S                  
MANSFIELD      MOCLDY    66  53  63 S8        29.90R                  
YOUNGSTOWN     LGT RAIN  62  43  49 SE12      29.94R                  
$$
 

SKY/WX - Weather  TMP - Temperature  DP - Dew Point  RH - Humidity
WIND - Wind Direction/Speed PRES - Barometric Pressure VSB - Visibility
WCI - Wind Chill Index E13G22 Wind - East Wind 13 mph/Gusts of 22 mph

Trending Headlines

Trending Entertainment Headlines

Leavittsburg Radar Loop

Use the map search tool if you want to place a location marker on the radar map...

Leavittsburg Quick Facts

National Two Day Weather Forecast


E-mail the Leavittsburg Weather Forecast

Voice your opinion or tell us about page issues...